Weather History for KGCK - December, 2013

Change the Weather History Date:

Tuesday, December 3, 2013

  Actual Average Record
Temperature  
Mean Temperature 45 °F 34 °F  
Max Temperature 64 °F 47 °F 72 °F (1954)
Min Temperature 25 °F 21 °F 8 °F (1978)
Degree Days  
Heating Degree Days 20 31  
Month to date heating degree days 61 92  
Since 1 July heating degree days 1105 1181  
Cooling Degree Days 0 0  
Month to date cooling degree days 0 0  
Year to date cooling degree days 1591 1298  
Moisture  
Dew Point 29 °F    
Average Humidity 60    
Maximum Humidity 92    
Minimum Humidity 28    
Precipitation  
Precipitation 0.00 in 0.02 in 0.58 in (1973)
Month to date precipitation 0.00 0.06  
Year to date precipitation 14.84 19.01  
Sea Level Pressure  
Sea Level Pressure 29.52 in    
Wind  
Wind Speed 8 mph (NNE)    
Max Wind Speed 33 mph    
Max Gust Speed 40 mph    
Visibility 9 miles    
Events      
T = Trace of Precipitation, MM = Missing Value Source: NWS Daily Summary

Daily Weather History Graph

Daily Weather History Graph

Search for Another Location

Airport or City:

Trip Planner

Search our weather history database for the weather conditions in past years. The results will help you decide how hot, cold, wet, or windy it might be!

Date:

Astronomy

Dec. 03, 2013 Rise Set
Actual Time 7:42 AM CST 5:23 PM CST
Civil Twilight 7:12 AM CST 5:52 PM CST
Nautical Twilight 6:40 AM CST 6:25 PM CST
Astronomical Twilight 6:08 AM CST 6:57 PM CST
Moon 8:13 AM CST (12/3) 6:28 PM CST (12/3)
Length of Visible Light 10h 39m
Length of Day
9h 41m
New Moon, 1% of the Moon is Illuminated
Dec 3
New Moon
Dec 9
First Quarter
Dec 17
Full
Dec 25
Last Quarter
Jan 1
New

Hourly Weather History & Observations

Time (CST) Temp. Windchill Dew Point Humidity Pressure Visibility Wind Dir Wind Speed Gust Speed Precip Events Conditions
12:54 AM 41.0 °F 39.0 °F 28.9 °F 62% 29.53 in 10.0 mi South 3.5 mph - N/A   Clear
1:54 AM 39.0 °F 35.7 °F 28.9 °F 67% 29.52 in 10.0 mi South 4.6 mph - N/A   Clear
2:54 AM 35.1 °F 32.2 °F 27.0 °F 72% 29.51 in 10.0 mi SE 3.5 mph - N/A   Clear
3:54 AM 30.9 °F 27.5 °F 25.0 °F 79% 29.51 in 10.0 mi East 3.5 mph - N/A   Clear
4:54 AM 28.9 °F 25.2 °F 25.0 °F 85% 29.52 in 10.0 mi WSW 3.5 mph - N/A   Clear
5:54 AM 27.0 °F 21.6 °F 24.1 °F 89% 29.53 in 10.0 mi North 4.6 mph - N/A   Clear
6:54 AM 28.0 °F 20.8 °F 24.1 °F 85% 29.53 in 10.0 mi NW 6.9 mph - N/A   Clear
7:54 AM 28.9 °F 21.1 °F 25.0 °F 85% 29.55 in 10.0 mi NW 8.1 mph - N/A   Clear
8:54 AM 30.9 °F 23.5 °F 26.1 °F 82% 29.57 in 10.0 mi WNW 8.1 mph - N/A   Clear
9:54 AM 39.9 °F 36.7 °F 30.9 °F 70% 29.54 in 10.0 mi NNW 4.6 mph - N/A   Clear
10:54 AM 48.0 °F - 30.9 °F 52% 29.54 in 10.0 mi Variable 3.5 mph - N/A   Clear
11:54 AM 52.0 °F - 30.9 °F 45% 29.50 in 10.0 mi Calm Calm - N/A   Clear
12:54 PM 55.9 °F - 30.0 °F 37% 29.47 in 10.0 mi Calm Calm - N/A   Clear
1:54 PM 59.0 °F - 30.0 °F 33% 29.44 in 10.0 mi Calm Calm - N/A   Clear
2:54 PM 61.0 °F - 30.0 °F 31% 29.43 in 10.0 mi Calm Calm - N/A   Clear
3:54 PM 64.0 °F - 30.0 °F 28% 29.43 in 10.0 mi Calm Calm - N/A   Clear
4:54 PM 57.0 °F - 32.0 °F 39% 29.45 in 10.0 mi East 8.1 mph - N/A   Clear
5:54 PM 46.9 °F - 30.9 °F 54% 29.47 in 10.0 mi East 8.1 mph - N/A   Clear
6:54 PM 45.0 °F 39.7 °F 30.9 °F 58% 29.48 in 10.0 mi East 10.4 mph - N/A   Clear
7:54 PM 44.1 °F 35.9 °F 32.0 °F 63% 29.52 in 10.0 mi NE 19.6 mph - N/A   Clear
8:54 PM 36.0 °F 23.7 °F 30.0 °F 79% 29.56 in 7.0 mi NE 26.5 mph 33.4 mph N/A   Clear
9:34 PM 33.8 °F 21.0 °F 28.4 °F 81% 29.55 in 8.0 mi NNE 25.3 mph 36.8 mph N/A   Mostly Cloudy
9:50 PM 33.8 °F 20.3 °F 28.4 °F 81% 29.56 in 7.0 mi NNE 28.8 mph 33.4 mph N/A   Overcast
9:54 PM 33.1 °F 20.9 °F 28.9 °F 85% 29.59 in 7.0 mi NNE 21.9 mph 33.4 mph N/A   Overcast
10:54 PM 30.9 °F 16.7 °F 28.0 °F 89% 29.60 in 6.0 mi North 27.6 mph 35.7 mph N/A   Overcast
11:15 PM 30.2 °F 14.7 °F 28.4 °F 93% 29.58 in 5.0 mi North 32.2 mph 40.3 mph N/A   Overcast
11:54 PM 28.9 °F 15.8 °F 28.0 °F 96% 29.64 in 3.0 mi North 20.7 mph 33.4 mph N/A   Overcast